Weather History for Wautoma, WI

Change the Weather History Date:

Thursday, November 15, 2012

  Actual Average (KPCZ) Record (KPCZ)
Temperature  
Mean Temperature 40 °F -  
Max Temperature 54 °F 42 °F 67 °F (1990)
Min Temperature 27 °F 27 °F -1 °F (1959)
Degree Days  
Heating Degree Days 24    
Moisture  
Dew Point 29 °F    
Average Humidity 72    
Maximum Humidity 96    
Minimum Humidity 39    
Precipitation  
Precipitation 0.00 in - - ()
Sea Level Pressure  
Sea Level Pressure 30.30 in    
Wind  
Wind Speed 2 mph (SSW)    
Max Wind Speed 13 mph    
Max Gust Speed 17 mph    
Visibility 10 miles    
Events      
Averages and records for this station are not official NWS values.
T = Trace of Precipitation, MM = Missing Value Source: NWS Daily Summary

Daily Weather History Graph

Daily Weather History Graph

Search for Another Location

Airport:

Trip Planner

Search our weather history database for the weather conditions in past years. The results will help you decide how hot, cold, wet, or windy it might be!

Date:

Astronomy

Nov. 15, 2012 Rise Set
Actual Time 6:52 AM CST 4:30 PM CST
Civil Twilight 6:21 AM CST 5:01 PM CST
Nautical Twilight 5:46 AM CST 5:36 PM CST
Astronomical Twilight 5:12 AM CST 6:10 PM CST
Moon 8:51 AM CST (11/15) 6:19 PM CST (11/15)
Length of Visible Light 10h 39m
Length of Day
9h 37m
Waxing Crescent, 5% of the Moon is Illuminated
Nov 15
Waxing Crescent
Nov 20
First Quarter
Nov 28
Full
Dec 6
Last Quarter
Dec 13
New

Hourly Weather History & Observations

Time (CST) Temp. Windchill Dew Point Humidity Pressure Visibility Wind Dir Wind Speed Gust Speed Precip Events Conditions
12:56 AM 34.0 °F - 29.1 °F 82% 30.30 in 10.0 mi Calm Calm - N/A   Clear
1:56 AM 34.0 °F - 28.0 °F 79% 30.30 in 10.0 mi Calm Calm - N/A   Clear
2:56 AM 34.0 °F - 28.0 °F 79% 30.29 in 10.0 mi Calm Calm - N/A   Clear
3:56 AM 34.0 °F - 28.0 °F 79% 30.29 in 10.0 mi Calm Calm - N/A   Clear
4:56 AM 34.0 °F - 28.0 °F 79% 30.29 in 10.0 mi Calm Calm - N/A   Clear
5:56 AM 32.9 °F - 28.0 °F 82% 30.29 in 10.0 mi Calm Calm - N/A   Clear
6:56 AM 31.1 °F - 28.0 °F 88% 30.29 in 10.0 mi Calm Calm - N/A   Partly Cloudy
7:56 AM 32.9 °F - 28.0 °F 82% 30.30 in 10.0 mi Calm Calm - N/A   Overcast
8:56 AM 36.9 °F - 29.1 °F 74% 30.29 in 10.0 mi Calm Calm - N/A   Clear
9:56 AM 41.9 °F 36.3 °F 29.1 °F 61% 30.30 in 10.0 mi SSW 9.2 mph - N/A   Mostly Cloudy
10:56 AM 47.8 °F - 30.0 °F 50% 30.28 in 10.0 mi SW 11.5 mph 17.3 mph N/A   Clear
11:56 AM 52.0 °F - 30.0 °F 43% 30.26 in 10.0 mi SSW 10.4 mph - N/A   Partly Cloudy
12:56 PM 54.0 °F - 29.1 °F 39% 30.25 in 10.0 mi SSW 10.4 mph - N/A   Scattered Clouds
1:56 PM 52.0 °F - 28.0 °F 40% 30.24 in 10.0 mi SW 12.7 mph - N/A   Scattered Clouds
2:56 PM 50.9 °F - 29.1 °F 43% 30.24 in 10.0 mi SSW 5.8 mph - N/A   Clear
3:56 PM 50.0 °F - 30.0 °F 46% 30.26 in 10.0 mi Calm Calm - N/A   Clear
4:56 PM 41.0 °F - 31.1 °F 68% 30.27 in 10.0 mi Calm Calm - N/A   Clear
5:56 PM 36.0 °F - 31.1 °F 82% 30.29 in 10.0 mi Calm Calm - N/A   Clear
6:56 PM 32.0 °F - 28.0 °F 85% 30.32 in 10.0 mi Calm Calm - N/A   Clear
7:56 PM 32.0 °F - 29.1 °F 89% 30.33 in 10.0 mi Calm Calm - N/A   Clear
8:56 PM 29.1 °F - 27.1 °F 92% 30.34 in 10.0 mi Calm Calm - N/A   Clear
9:56 PM 29.1 °F - 27.1 °F 92% 30.35 in 10.0 mi Calm Calm - N/A   Clear
10:56 PM 27.1 °F - 26.1 °F 96% 30.36 in 10.0 mi Calm Calm - N/A   Clear
11:56 PM 36.0 °F 29.6 °F 30.0 °F 79% 30.38 in 10.0 mi NNE 8.1 mph - N/A   Clear